Simultaneous Nadir Overpasses (SNOs) Predictions

Prediction of SNOs between NOAA-15 and METOP-C Satellite Orbit:

Table of predicted SNOs for the next 14.0 days since TLE Epoch: 6/14/2019
Index Date (NOAA-15) Time (NOAA-15) Lat,Lon (NOAA-15) SZA (NOAA-15 ) Date (METOP-C) Time (METOP-C) Lat,Lon (METOP-C) SZA (METOP-C ) Distance(km) Time Diff (sec)
1 06/17/2019 01:33:36 -80.82, 9.73 121.01 06/17/2019 01:32:25 -80.81, 9.80 121.04 1.64 71
2 06/17/2019 02:24:09 80.82, 177.05 58.99 06/17/2019 02:23:05 80.80, 177.06 58.96 1.69 64
3 06/17/2019 03:14:38 -80.80, -15.28 121.00 06/17/2019 03:13:46 -80.82, -15.33 121.01 2.07 52
4 06/17/2019 04:05:11 80.80, 152.05 59.00 06/17/2019 04:04:26 80.81, 151.93 58.98 2.47 45
5 06/17/2019 04:55:41 -80.81, -40.63 121.00 06/17/2019 04:55:08 -80.81, -40.80 121.03 3.06 33
6 06/17/2019 05:46:14 80.81, 126.70 59.00 06/17/2019 05:45:47 80.83, 126.80 59.01 2.70 27
7 06/17/2019 06:36:44 -80.81, -65.99 121.01 06/17/2019 06:36:29 -80.82, -65.93 121.00 1.58 15
8 06/17/2019 07:27:17 80.81, 101.34 58.99 06/17/2019 07:27:09 80.82, 101.32 58.99 0.66 8
9 06/17/2019 08:17:47 -80.82, -91.35 121.02 06/17/2019 08:17:51 -80.82, -91.41 121.03 1.12 4
10 06/17/2019 09:08:20 80.82, 75.99 58.98 06/17/2019 09:08:31 80.81, 75.85 58.97 2.73 11
11 06/17/2019 09:58:50 -80.82,-116.71 121.03 06/17/2019 09:59:12 -80.83,-116.54 121.00 3.04 22
12 06/17/2019 10:49:23 80.82, 50.64 58.98 06/17/2019 10:49:52 80.82, 50.72 58.99 1.45 29
13 06/17/2019 11:39:53 -80.83,-142.06 121.03 06/17/2019 11:40:34 -80.82,-142.02 121.02 1.27 41
14 06/17/2019 12:30:26 80.83, 25.28 58.97 06/17/2019 12:31:14 80.82, 25.24 58.97 1.68 48
15 06/17/2019 13:20:55 -80.81,-167.07 121.02 06/17/2019 13:21:55 -80.83,-167.14 120.99 2.31 60
16 06/17/2019 14:11:28 80.81, 0.29 58.98 06/17/2019 14:12:35 80.83, 0.11 59.00 3.33 67




NCC Satellite Simultaneous Nadir Overpasses (SNOs) Prediction Service
